Ludington, MI

3:19 AM EST on December 10, 2016 (GMT -0500)
Mason County

Weather History for KLDM - December, 2012

Change the Weather History Date:

Tuesday, December 25, 2012

  Actual Average Record
Temperature  
Mean Temperature 26 °F -  
Max Temperature 30 °F 30 °F 51 °F (1982)
Min Temperature 23 °F 17 °F 1 °F (1969)
Degree Days  
Heating Degree Days 38    
Moisture  
Dew Point 22 °F    
Average Humidity 79    
Maximum Humidity 88    
Minimum Humidity 64    
Precipitation  
Precipitation 0.00 in - - ()
Sea Level Pressure  
Sea Level Pressure 30.26 in    
Wind  
Wind Speed 1 mph (ENE)    
Max Wind Speed 12 mph    
Max Gust Speed 17 mph    
Visibility 10 miles    
Events Snow    
Averages and records for this station are not official NWS values.
T = Trace of Precipitation, MM = Missing Value Source: NWS Daily Summary

Daily Weather History Graph

Daily Weather History Graph

Search for Another Location

Airport or City:

Trip Planner

Search our weather history database for the weather conditions in past years. The results will help you decide how hot, cold, wet, or windy it might be!

Date:

Astronomy

Dec. 25, 2012 Rise Set
Actual Time 8:18 AM EST 5:13 PM EST
Civil Twilight 7:45 AM EST 5:46 PM EST
Nautical Twilight 7:09 AM EST 6:22 PM EST
Astronomical Twilight 6:34 AM EST 6:57 PM EST
Moon 3:22 PM EST (12/25) 5:49 AM EST (12/25)
Length of Visible Light 10h 00m
Length of Day
8h 54m
Waxing Gibbous, 93% of the Moon is Illuminated
Dec 25
Waxing Gibbous
Dec 28
Full
Jan 4
Last Quarter
Jan 11
New
Jan 18
First Quarter

Hourly Weather History & Observations

Time (EST) Temp. Windchill Dew Point Humidity Pressure Visibility Wind Dir Wind Speed Gust Speed Precip Events Conditions
12:15 AM 23.4 °F - 19.8 °F 86% 30.07 in 10.0 mi Calm Calm - N/A   Overcast
12:35 AM 23.5 °F - 19.9 °F 86% 30.07 in 10.0 mi Calm Calm - N/A   Overcast
12:55 AM 23.9 °F - 20.3 °F 86% 30.07 in 10.0 mi Calm Calm - N/A   Overcast
1:15 AM 23.9 °F - 20.3 °F 86% 30.08 in 10.0 mi Calm Calm - N/A   Overcast
1:35 AM 25.3 °F - 21.2 °F 84% 30.09 in 10.0 mi Calm Calm - N/A   Overcast
1:55 AM 25.3 °F - 21.4 °F 85% 30.10 in 10.0 mi Calm Calm - N/A   Overcast
2:15 AM 25.3 °F - 21.6 °F 86% 30.10 in 10.0 mi Calm Calm - N/A   Overcast
2:35 AM 25.3 °F - 21.2 °F 84% 30.11 in 10.0 mi Calm Calm - N/A   Overcast
2:55 AM 25.3 °F 21.1 °F 21.2 °F 84% 30.12 in 10.0 mi NE 3.5 mph - N/A   Overcast
3:14 AM 25.3 °F - 21.0 °F 84% 30.13 in 10.0 mi Calm Calm - N/A   Overcast
3:35 AM 25.3 °F - 21.2 °F 84% 30.14 in 10.0 mi Calm Calm - N/A   Overcast
3:55 AM 25.3 °F - 21.2 °F 84% 30.15 in 10.0 mi Calm Calm - N/A   Overcast
4:15 AM 25.3 °F - 21.2 °F 84% 30.16 in 10.0 mi Calm Calm - N/A   Overcast
4:35 AM 25.3 °F - 21.2 °F 84% 30.17 in 10.0 mi Calm Calm - N/A   Overcast
4:54 AM 26.2 °F - 22.1 °F 84% 30.17 in 5.0 mi Calm Calm - N/A   Overcast
5:15 AM 25.3 °F - 21.6 °F 86% 30.18 in 7.0 mi Calm Calm - N/A   Overcast
5:35 AM 25.3 °F - 21.7 °F 86% 30.19 in 7.0 mi Calm Calm - N/A   Overcast
5:54 AM 25.3 °F - 21.9 °F 87% 30.19 in 7.0 mi Calm Calm - N/A Snow Light Snow
6:15 AM 25.5 °F - 22.3 °F 88% 30.20 in 7.0 mi Calm Calm - N/A   Overcast
6:35 AM 26.2 °F - 23.0 °F 88% 30.21 in 7.0 mi Calm Calm - N/A   Overcast
6:55 AM 26.6 °F - 23.4 °F 88% 30.22 in 10.0 mi Calm Calm - N/A   Overcast
7:15 AM 26.6 °F - 23.4 °F 88% 30.23 in 10.0 mi Calm Calm - N/A   Overcast
7:35 AM 26.8 °F - 23.4 °F 87% 30.23 in 10.0 mi Calm Calm - N/A   Overcast
7:55 AM 26.6 °F - 23.0 °F 86% 30.24 in 10.0 mi Calm Calm - N/A   Overcast
8:14 AM 26.6 °F - 23.0 °F 86% 30.24 in 10.0 mi Calm Calm - N/A   Overcast
8:35 AM 26.6 °F - 23.2 °F 87% 30.25 in 7.0 mi Calm Calm - N/A   Overcast
8:55 AM 27.5 °F - 23.9 °F 86% 30.26 in 10.0 mi Calm Calm - N/A   Overcast
9:15 AM 27.9 °F - 24.3 °F 86% 30.27 in 10.0 mi Calm Calm - N/A   Overcast
9:35 AM 27.9 °F - 23.9 °F 85% 30.28 in 10.0 mi Calm Calm - N/A   Overcast
9:55 AM 27.9 °F - 23.9 °F 85% 30.28 in 10.0 mi Calm Calm - N/A   Overcast
10:15 AM 27.9 °F - 23.9 °F 85% 30.29 in 10.0 mi Calm Calm - N/A   Overcast
10:35 AM 27.9 °F - 23.9 °F 85% 30.30 in 10.0 mi Calm Calm - N/A   Overcast
10:55 AM 27.9 °F 24.0 °F 23.7 °F 84% 30.30 in 10.0 mi East 3.5 mph - N/A   Overcast
11:15 AM 27.9 °F 24.0 °F 23.4 °F 83% 30.30 in 10.0 mi East 3.5 mph - N/A   Overcast
11:35 AM 27.9 °F 24.0 °F 23.0 °F 82% 30.29 in 10.0 mi East 3.5 mph - N/A   Overcast
11:55 AM 27.9 °F 22.6 °F 23.0 °F 82% 30.28 in 10.0 mi East 4.6 mph - N/A   Overcast
12:15 PM 30.2 °F 25.4 °F 24.8 °F 80% 30.28 in 10.0 mi East 4.6 mph - N/A   Overcast
12:35 PM 30.2 °F 25.4 °F 23.9 °F 77% 30.28 in 10.0 mi East 4.6 mph - N/A   Overcast
1:15 PM 30.2 °F 24.3 °F 23.5 °F 76% 30.29 in 10.0 mi ESE 5.8 mph - N/A   Overcast
1:35 PM 30.2 °F 25.4 °F 22.6 °F 73% 30.29 in 10.0 mi East 4.6 mph - N/A   Overcast
1:54 PM 30.2 °F 25.4 °F 22.6 °F 73% 30.29 in 10.0 mi East 4.6 mph - N/A   Overcast
2:15 PM 30.2 °F - 22.5 °F 73% 30.32 in 10.0 mi Calm Calm - N/A   Overcast
2:35 PM 30.2 °F 26.7 °F 22.5 °F 73% 30.31 in 10.0 mi ESE 3.5 mph - N/A   Overcast
2:54 PM 30.2 °F 26.7 °F 22.1 °F 72% 30.31 in 10.0 mi SE 3.5 mph - N/A   Overcast
3:15 PM 30.2 °F - 22.1 °F 72% 30.31 in 10.0 mi Calm Calm - N/A   Overcast
3:35 PM 30.2 °F - 22.1 °F 72% 30.30 in 10.0 mi Calm Calm - N/A   Overcast
3:55 PM 30.2 °F - 22.6 °F 73% 30.30 in 10.0 mi Calm Calm - N/A   Overcast
4:15 PM 30.2 °F 25.4 °F 22.8 °F 74% 30.30 in 10.0 mi East 4.6 mph - N/A   Overcast
4:35 PM 30.2 °F 25.4 °F 22.6 °F 73% 30.31 in 10.0 mi East 4.6 mph - N/A   Overcast
4:55 PM 30.2 °F - 22.5 °F 73% 30.31 in 10.0 mi Calm Calm - N/A   Overcast
5:15 PM 30.2 °F - 23.2 °F 75% 30.31 in 10.0 mi Calm Calm - N/A   Overcast
5:35 PM 30.2 °F 26.7 °F 23.4 °F 76% 30.31 in 10.0 mi ESE 3.5 mph - N/A   Overcast
5:55 PM 30.2 °F - 22.5 °F 73% 30.31 in 10.0 mi Calm Calm - N/A   Overcast
6:15 PM 30.2 °F - 22.1 °F 72% 30.32 in 10.0 mi Calm Calm - N/A   Overcast
6:35 PM 30.2 °F - 21.9 °F 71% 30.32 in 10.0 mi Calm Calm - N/A   Overcast
6:55 PM 30.2 °F - 22.1 °F 72% 30.34 in 10.0 mi Calm Calm - N/A   Overcast
7:15 PM 30.2 °F - 21.9 °F 71% 30.35 in 10.0 mi Calm Calm - N/A   Overcast
7:35 PM 30.2 °F 24.3 °F 22.1 °F 72% 30.35 in 10.0 mi ENE 5.8 mph - N/A   Overcast
7:55 PM 30.2 °F 24.3 °F 22.1 °F 72% 30.35 in 10.0 mi ENE 5.8 mph - N/A   Overcast
8:15 PM 30.2 °F 24.3 °F 21.9 °F 71% 30.35 in 10.0 mi ENE 5.8 mph - N/A   Overcast
8:35 PM 30.2 °F 23.4 °F 22.1 °F 72% 30.35 in 10.0 mi ENE 6.9 mph - N/A   Overcast
8:55 PM 30.2 °F 22.6 °F 21.6 °F 70% 30.34 in 10.0 mi ENE 8.1 mph - N/A   Overcast
9:15 PM 30.2 °F 24.3 °F 21.4 °F 70% 30.35 in 10.0 mi ENE 5.8 mph - N/A   Overcast
9:35 PM 30.2 °F 23.4 °F 21.2 °F 69% 30.35 in 10.0 mi ENE 6.9 mph - N/A   Overcast
9:55 PM 30.2 °F 26.7 °F 20.8 °F 68% 30.35 in 10.0 mi ENE 3.5 mph - N/A   Overcast
10:15 PM 27.9 °F 22.6 °F 18.9 °F 69% 30.35 in 10.0 mi ENE 4.6 mph - N/A   Overcast
10:35 PM 27.9 °F 21.5 °F 19.0 °F 69% 30.34 in 10.0 mi ENE 5.8 mph - N/A   Overcast
10:55 PM 28.0 °F 22.8 °F 18.5 °F 67% 30.33 in 10.0 mi ENE 4.6 mph - N/A   Overcast
11:15 PM 27.9 °F 19.1 °F 17.6 °F 65% 30.33 in 10.0 mi ENE 9.2 mph 16.1 mph N/A   Overcast
11:35 PM 27.9 °F 19.8 °F 17.4 °F 65% 30.32 in 10.0 mi NE 8.1 mph 16.1 mph N/A   Overcast
11:54 PM 27.9 °F 17.8 °F 17.1 °F 64% 30.32 in 10.0 mi NE 11.5 mph 17.3 mph N/A   Overcast